Location: *
(49.6500°N, 21.1667°E)
Time: 08:42:29
(UTC+00:00)

Daily predictions for brighter satellites

Satellite Brightness Start Highest point End
(mag) Time Altitude Azimuth Time Altitude Azimuth Time Altitude Azimuth
Timation 1 Rocket 4.4 19:11:57 10° NNW 19:18:00 88° WSW 19:23:59 10° SSE
Cosmos 1151 Rocket 3.2 19:14:24 10° N 19:18:46 61° ENE 19:23:06 10° SSE
Cosmos 1238 Rocket 4.2 19:13:34 10° S 19:20:08 68° E 19:26:36 10° NNE
ATLAS CENTAUR R/B 4.1 19:17:00 10° NNW 19:20:17 18° NNE 19:23:28 10° ENE
Cosmos 1461 4.4 19:17:25 10° WNW 19:20:50 28° WSW 19:24:17 10° S
Landsat 7 4.3 19:19:15 10° SE 19:23:47 46° ENE 19:28:21 10° N
Cosmos 2360 Rocket 2.9 19:19:08 10° SSE 19:24:03 32° ESE 19:28:59 10° NE
Cosmos 1072 Rocket 4.5 19:19:30 10° S 19:25:36 77° E 19:31:44 10° NNE
Lacrosse 5 3.4 19:22:31 10° WNW 19:27:13 36° N 19:31:55 10° ENE
Cosmos 1980 Rocket 3.6 19:23:27 10° SW 19:28:49 44° NW 19:34:11 10° NNE
Cosmos 1328 Rocket 3.6 19:24:51 10° N 19:29:16 88° E 19:33:37 10° S
ISS -2.9 19:29:51 10° SSW 19:32:46 29° SE 19:35:43 10° E
H-2A R/B 3.7 19:30:24 10° SSW 19:35:16 33° W 19:40:06 10° NNW
Aureole 1 Rocket 4.0 19:33:06 10° SSW 19:38:08 77° WNW 19:44:53 10° NNE
Cosmos 2084 Rocket 4.5 19:34:21 10° NW 19:38:31 40° NE 19:42:36 10° ESE
Nadezhda 4 Rocket 4.1 19:33:55 10° N 19:40:16 74° ENE 19:46:31 10° SSE
Cosmos 1408 3.2 19:37:34 10° SSE 19:41:02 39° E 19:44:32 10° NNE
Cosmos 1606 3.8 19:37:57 10° N 19:41:18 29° ENE 19:44:11 12° SE
CZ-2C R/B 2.7 19:37:59 10° NNE 19:43:12 59° E 19:48:17 10° S
Cosmos 1500 Rocket 4.1 19:39:01 10° SSE 19:43:14 43° E 19:47:29 10° NNE
SWARM A 4.2 19:43:35 10° S 19:46:55 77° E 19:50:17 10° N
Cosmos 2034 Rocket 4.0 19:42:12 10° S 19:48:25 77° E 19:54:44 10° NNE
Cosmos 1933 3.6 19:44:51 10° N 19:48:52 54° ENE 19:52:18 13° SSE
USA 229 DEB 4.2 19:44:24 10° S 19:50:20 37° ESE 19:56:30 10° NE
USA 229 4.2 19:44:31 10° S 19:50:27 36° ESE 19:56:37 10° NE
Terra 2.4 19:48:52 13° SE 19:52:54 46° ENE 19:57:28 10° N
SL-23 DEB 4.4 19:48:20 10° WNW 19:53:06 45° SW 19:55:40 15° SE
Cosmos 407 Rocket 4.0 19:48:11 10° S 19:53:06 40° ESE 19:58:05 10° NE
DMSP B5D2-2 4.5 19:48:09 10° N 19:53:20 67° WNW 19:58:29 10° SSW
NOSS 5 (C) 4.5 19:49:50 10° SSW 19:53:39 54° SE 19:56:45 10° NE
USA 81 4.4 19:48:44 10° N 19:53:54 51° ENE 19:58:22 14° SSE
Iridium 4 Rocket 4.3 19:48:03 10° N 19:53:55 65° W 19:59:39 10° SSW
Thor Agena Rocket 3.7 19:49:05 10° NNE 19:54:02 52° E 19:58:57 10° S
Cosmos 2322 Rocket 2.3 19:48:30 10° SSW 19:54:13 84° WNW 19:59:59 10° NNE
Cosmos 2219 Rocket 3.6 19:51:31 13° SE 19:54:39 20° E 19:58:36 10° NE
Cosmos 2151 3.9 19:52:17 10° SSW 19:56:28 51° WNW 20:00:41 10° N
Meteor 2-3 Rocket 4.3 19:52:15 11° SSE 19:57:23 41° E 20:02:48 10° NNE
Cosmos 1092 Rocket 4.1 19:52:10 10° N 19:58:25 68° ENE 20:04:00 13° SSE
Meteor 1-26 Rocket 4.5 19:53:21 10° N 19:58:57 57° ENE 20:03:33 15° SSE
Cosmos 1190 Rocket 4.5 19:54:16 10° S 19:59:05 41° ESE 20:03:58 10° NE
Cosmos 2278 Rocket 3.7 19:54:33 10° NNW 19:59:21 27° NE 20:04:07 10° E
Cosmos 44 Rocket 3.3 19:54:34 10° SSW 19:59:42 79° SE 20:04:45 10° NE
SL-16 R/B 2.6 19:54:31 10° SW 20:00:10 70° WNW 20:05:52 10° NNE
ADEOS Rocket 3.6 19:54:43 10° N 20:00:17 55° WNW 20:05:36 10° SW
Cosmos 2333 Rocket 3.5 19:57:43 14° SE 20:00:53 21° E 20:05:05 10° NE
ERS-1 Rocket 3.1 19:57:30 11° SSE 20:02:25 81° WSW 20:07:30 10° NNW
Gbstr 26 Del rocket 2.6 19:59:50 10° WSW 20:03:47 90° WSW 20:07:32 10° ENE
Cosmos 1825 2.3 20:00:43 13° S 20:03:58 54° E 20:07:40 10° NNE
Cosmos 614 Rocket 4.3 20:00:01 10° S 20:04:47 43° ESE 20:09:36 10° NE
Cosmos 1607 4.1 19:58:58 10° NW 20:05:07 67° NE 20:10:25 14° SE
Cosmos 1743 Rocket 3.5 20:06:00 10° S 20:10:23 90° ESE 20:14:47 10° N
IGS 5A 3.6 20:07:39 13° S 20:11:19 74° WSW 20:15:30 10° NNW
Cosmos 2322 4.0 20:07:05 10° S 20:12:26 46° ESE 20:17:50 10° NE
EO 1 Del DPAF 3.6 20:09:40 10° N 20:13:27 65° WNW 20:17:13 10° SSW
Cosmos 1844 Rocket 2.7 20:08:04 10° NNW 20:13:48 88° ENE 20:18:14 17° SSE
USA 215 3.8 20:08:17 10° ENE 20:14:46 65° NNW 20:21:15 10° WSW
Cosmos 1515 Rocket 4.4 20:12:44 10° NNW 20:16:56 47° W 20:21:05 10° SSW
Cosmos 2263 Rocket 4.1 20:13:30 10° NW 20:17:51 23° WSW 20:22:11 10° SSW
Tiangong 2 3.5 20:18:04 10° SW 20:18:58 11° SSW 20:19:09 11° SSW
Helios 1A 4.5 20:18:13 14° ESE 20:20:51 25° ENE 20:24:18 10° N
Cosmos 1634 Rocket 4.1 20:17:39 13° S 20:23:13 63° E 20:29:23 10° NNE
SPOT 1/Viking Rocket 4.1 20:20:29 11° S 20:25:17 55° W 20:30:24 10° NNW
Cosmos 2026 Rocket 3.9 20:25:41 10° N 20:31:48 82° E 20:36:27 18° SSE
Lacrosse 5 rocket 3.0 20:28:58 10° NW 20:33:18 37° NNE 20:37:32 10° E
IRAS Rocket 4.4 20:29:24 19° SSE 20:33:26 69° ENE 20:39:03 10° NNW
Cosmos 1655 Rocket 4.5 20:28:25 10° N 20:34:30 49° ENE 20:38:41 20° SE
Cosmos 2237 4.2 20:29:00 10° SSW 20:34:42 88° ESE 20:40:26 10° NNE
Cosmos 1805 Rocket 3.6 20:32:33 20° S 20:35:28 63° E 20:39:48 10° NNE
Landsat 4 3.6 20:35:35 10° NNE 20:39:19 81° ESE 20:41:49 20° S
SPOT 5 3.6 20:35:44 14° S 20:39:57 50° W 20:44:40 10° NNW
Cosmos 1818 3.6 20:34:54 10° NW 20:40:25 89° SW 20:44:00 22° SE
Cosmos 2228 Rocket 4.3 20:38:09 10° NNW 20:42:23 38° W 20:46:20 11° SSW
Cosmos 1356 Rocket 4.5 20:38:30 10° NNW 20:42:33 42° W 20:45:51 15° SSW
SL-8 R/B 4.1 20:41:17 10° W 20:45:49 45° SSW 20:48:09 25° SSE
Cosmos 1782 2.8 20:44:06 10° N 20:48:10 78° E 20:50:12 28° SSE
Mayak -0.3 20:45:46 10° NNE 20:49:36 32° E 20:51:05 25° SE
SL-4 R/B 2.5 20:46:08 10° SW 20:50:49 49° SSE 20:55:23 10° ENE
COSMOS 2428 2.9 20:48:54 18° S 20:53:02 54° ESE 20:58:38 10° NE
Cosmos 1844 4.0 20:47:59 10° NW 20:53:31 60° WSW 20:57:03 22° S
DELTA 2 R/B (1) 4.4 20:48:50 10° SW 20:53:32 28° S 20:55:04 24° SE
Cosmos 1812 4.5 20:52:04 10° NNE 20:55:06 22° ENE 20:56:43 17° ESE
Cosmos 1666 Rocket 3.8 20:53:38 27° SSE 20:55:55 57° E 21:00:20 10° NNE
Cosmos 1400 Rocket 4.4 20:53:58 10° N 20:57:27 25° ENE 20:59:22 18° ESE
Cosmos 1633 Rocket 3.4 20:56:21 28° SSE 20:58:15 49° E 21:02:28 10° NNE
ALOS 2 4.1 20:55:52 17° ESE 20:58:16 26° ENE 21:01:56 10° N
Cosmos 1862 4.2 20:57:26 27° SE 20:58:38 33° E 21:02:16 10° NNE
ATLAS CENTAUR R/B 2.4 20:55:46 10° NNW 21:00:26 47° NE 21:03:34 18° ESE
Meteor 2-6 Rocket 4.2 20:56:18 10° N 21:01:45 75° ENE 21:04:57 26° SSE
Helios 1B rocket 4.0 20:59:22 10° NE 21:02:33 21° E 21:03:24 20° ESE
ASTEX 1 3.4 20:57:35 10° N 21:02:37 85° W 21:05:57 22° S
NOSS 3-1 (C) 3.3 20:57:23 10° SSW 21:03:00 77° SE 21:09:34 10° NE
GP-B 4.2 21:02:08 10° NNE 21:06:08 31° E 21:07:48 24° ESE
Cosmos 1867 4.3 21:04:17 26° SSE 21:06:14 34° ESE 21:11:09 10° NE
Cosmos 2360 Rocket 3.1 21:02:23 10° SW 21:07:51 50° NW 21:13:21 10° NNE
ISS -3.8 21:05:54 10° WSW 21:09:15 81° NNW 21:12:36 10° ENE
Cosmos 1862 Rocket 3.8 21:05:13 10° N 21:09:29 55° ENE 21:11:20 31° SE
Cosmos 676 Rocket 4.0 21:05:24 15° SSW 21:09:46 88° WNW 21:15:05 10° NNE
Cosmos 2237 Rocket 3.1 21:07:54 25° SE 21:09:47 30° ESE 21:14:38 10° NE
COSMOS 2455 4.3 21:08:52 17° ESE 21:10:05 18° ESE 21:14:03 10° ENE
Lacrosse 5 2.9 21:06:10 10° NW 21:11:04 46° NNE 21:15:57 10° E
SL-19 R/B 3.6 21:10:08 10° NNE 21:13:29 87° WNW 21:14:24 42° SSW
Cosmos 1470 Rocket 4.1 21:14:15 31° SE 21:15:43 42° E 21:19:52 10° NNE
Sich 1 3.2 21:14:33 24° SSW 21:17:06 70° W 21:21:23 10° N
Cosmos 2084 Rocket 4.2 21:13:57 10° NW 21:18:02 38° WSW 21:19:28 29° SSW
Cosmos 1741 Rocket 4.4 21:16:59 29° SSE 21:19:08 45° ESE 21:24:05 10° NE
MOS 1 Rocket 3.9 21:17:06 10° N 21:21:26 52° WNW 21:25:06 15° SW
Cosmos 2266 Rocket 4.1 21:15:45 10° N 21:22:08 69° ENE 21:25:42 27° SSE
Cosmos 1954 Rocket 4.1 21:20:01 15° SSW 21:24:23 74° WNW 21:29:42 10° NNE
Cosmos 1633 2.8 21:24:58 44° SE 21:25:40 52° E 21:29:10 10° NNE
Cosmos 1850 Rocket 4.2 21:27:27 30° S 21:29:56 58° ESE 21:35:12 10° NNE
Terra 3.5 21:27:45 14° SW 21:30:52 25° W 21:34:49 10° NW
Cosmos 1140 Rocket 4.2 21:28:08 10° SW 21:33:10 51° WNW 21:38:17 10° NNE
Meteor 1-27 Rocket 3.8 21:27:59 10° N 21:33:54 78° ENE 21:36:59 30° SSE
Cosmos 2279 Rocket 4.2 21:31:09 19° SSW 21:35:45 66° WNW 21:41:57 10° N
Cosmos 2219 Rocket 2.3 21:33:11 15° SSW 21:37:57 79° WNW 21:43:40 10° NNE
Cosmos 540 Rocket 4.4 21:35:26 10° NNW 21:40:16 40° ENE 21:43:20 20° ESE
USA 229 DEB 4.1 21:34:21 10° WSW 21:40:57 63° NW 21:47:55 10° NE
USA 229 4.1 21:34:27 10° WSW 21:41:04 64° NW 21:48:01 10° NE
BREEZE-M DEB (TANK) 2.5 21:40:27 10° W 21:43:10 82° S 21:51:16 10° ESE
Spot 4 4.1 21:41:09 31° SSW 21:43:15 58° W 21:48:00 10° NNW
NOSS 3-1 (A) 3.4 21:38:17 10° SW 21:43:55 89° NW 21:50:35 10° NE
Cosmos 2278 Rocket 2.2 21:38:19 10° NNW 21:43:59 71° WSW 21:46:37 32° S
ARGOS Delta rocket 3.6 21:42:24 38° S 21:44:05 86° WSW 21:48:42 10° NNW
Cosmos 2333 Rocket 2.4 21:39:40 14° SW 21:44:35 73° WNW 21:50:18 10° NNE
BREEZE-M DEB (TANK) 2.0 21:42:37 10° W 21:46:42 20° E 21:48:18 10° E
Cosmos 1943 Rocket 4.3 21:41:33 10° N 21:45:38 21° NE 21:49:42 10° E
ATLAS 5 CENTAUR R/B 3.6 21:41:00 10° NW 21:46:01 36° NNE 21:51:44 10° E
Gbstr 26 Del rocket 3.0 21:47:00 10° WNW 21:50:43 62° N 21:54:31 10° E
NOSS 2-3 (E) 3.7 21:53:10 32° SSW 21:55:15 72° SE 22:00:38 10° NE
Helios 1A 3.9 21:54:50 29° SW 21:56:16 38° W 22:00:11 10° NNW
SeaSat 1 2.6 21:52:11 10° NE 21:57:03 54° ESE 21:58:44 37° S
Cosmos 841 Rocket 3.6 21:52:06 10° NNW 21:57:15 67° ENE 21:59:39 31° SE
USA 215 4.3 21:51:06 10° ENE 21:57:18 47° N 22:03:30 10° WNW
NOSS 2-3 (D) 3.7 21:56:04 34° SSW 21:58:03 71° SE 22:03:23 10° NE
Cosmos 1763 Rocket 3.5 21:59:31 10° NNW 22:04:41 70° WSW 22:06:44 37° S
CZ-4 R/B 4.3 22:01:07 10° NNE 22:05:38 44° E 22:06:59 35° SE
Cosmos 468 Rocket 4.4 22:02:01 10° NNW 22:07:08 51° WSW 22:09:08 33° SSW
Meteor 1-29 2.9 22:04:52 10° NNE 22:08:19 67° ESE 22:08:38 62° SE
Cosmos 2369 Rocket 4.0 22:04:55 10° NNW 22:09:47 27° NE 22:14:35 10° E
NOSS 0 Rocket 3.9 22:06:55 23° SSW 22:11:00 85° WNW 22:17:13 10° NNE
Lacrosse 5 rocket 1.5 22:08:20 10° WNW 22:12:59 89° NE 22:15:02 32° SE
CENTAUR R/B 4.5 22:07:46 10° NW 22:14:34 36° NNE 22:22:08 10° E
ATLAS 3B R/B 4.3 22:12:57 10° NW 22:18:54 33° NNE 22:24:52 10° E
Cosmos 2242 Rocket 4.4 22:16:42 10° NNW 22:20:58 41° W 22:22:30 31° SW
Cosmos 1703 Rocket 3.6 22:19:04 10° NNW 22:23:32 72° W 22:24:50 44° SSW
Cosmos 2208 Rocket 4.4 22:18:23 10° NNW 22:23:42 54° WSW 22:25:41 35° SSW
Mayak 0.4 22:21:26 10° N 22:25:08 30° WNW 22:27:40 17° WSW
ERS-2 2.0 22:28:07 60° S 22:28:42 80° WSW 22:32:25 10° NNW
SL-4 R/B 2.4 22:25:41 10° W 22:30:31 77° NNW 22:35:09 10° ENE
Cosmos 1315 Rocket 2.7 22:27:01 10° NNW 22:30:58 86° W 22:31:48 55° S
Cosmos 1812 3.7 22:27:29 10° NNW 22:31:02 35° W 22:31:48 32° WSW
USA 238 DEB 4.3 22:24:39 10° NW 22:31:42 60° NE 22:38:57 10° ESE
USA 238 4.3 22:24:45 10° NW 22:31:49 60° NE 22:39:03 10° ESE
Cosmos 1400 Rocket 3.9 22:30:14 10° NNW 22:34:01 34° W 22:34:59 30° WSW
ALOS 2 3.4 22:33:16 33° SW 22:34:27 40° W 22:38:36 10° NNW
Cosmos 2221 Rocket 3.8 22:31:11 10° N 22:35:43 66° ENE 22:37:13 40° SE
Okean 3 4.5 22:31:52 10° N 22:35:53 39° ENE 22:37:28 28° ESE
Cosmos 1933 Rocket 4.5 22:34:02 27° SW 22:35:54 41° WNW 22:40:06 10° N
SL-16 R/B 2.4 22:34:08 36° SSE 22:36:13 55° ESE 22:41:44 10° NE
ATLAS 2AS CENTAUR R/B 4.4 22:33:30 18° SE 22:36:36 23° ESE 22:42:31 10° ENE
COSMOS 2428 4.2 22:32:26 10° WSW 22:37:35 33° NW 22:42:45 10° NNE
Helios 1B rocket 3.3 22:34:05 10° N 22:38:02 44° WNW 22:39:44 28° WSW
ATLAS CENTAUR R/B 2.5 22:35:06 10° NW 22:39:17 32° WSW 22:39:44 31° SW
Okean 1-7 3.2 22:35:49 10° NNW 22:40:03 59° W 22:41:09 43° SSW
NOSS 2-3 (C) 4.3 22:37:14 17° WSW 22:40:41 60° NW 22:46:15 10° NE
Lacrosse 4 Rocket 1.7 22:41:23 45° SSE 22:42:18 55° ESE 22:46:40 10° NE
GP-B 4.5 22:39:30 10° NNW 22:43:24 30° WNW 22:45:15 22° WSW
SL-19 R/B 4.4 22:42:23 35° S 22:44:49 71° WSW 22:50:44 10° NNW
ISS -3.3 22:42:49 10° WNW 22:46:07 60° N 22:49:25 10° E
Cosmos 1980 4.2 22:42:14 19° SW 22:46:12 55° NW 22:51:49 10° NNE
Cosmos 1867 4.2 22:44:54 13° WSW 22:49:40 53° NW 22:55:04 10° NE
H-2A R/B 4.4 22:46:27 10° ESE 22:49:43 20° ENE 22:53:00 10° NNE
Cosmos 2237 Rocket 2.8 22:49:41 19° SW 22:53:36 52° NW 22:59:07 10° NNE
Cosmos 1437 3.0 22:53:43 52° W 22:53:47 52° WNW 22:56:50 10° N
Lacrosse 5 1.8 22:49:14 10° WNW 22:54:16 67° SW 22:56:25 34° SSE
COSMOS 2455 2.8 22:51:58 29° SSW 22:55:12 88° SE 23:01:18 10° NE
Cosmos 2285 Rocket 4.0 22:53:55 29° SSW 22:57:20 81° WNW 23:03:41 10° NNE
Cosmos 1869 Rocket 3.8 22:58:41 40° SW 23:00:06 62° WNW 23:04:28 10° N
Meteor 1-19 Rocket 4.1 22:57:16 10° N 23:02:46 81° ENE 23:05:19 33° SSE
Meteor 1-14 Rocket 4.3 23:10:09 34° SSW 23:12:52 83° WNW 23:18:51 10° N
Cosmos 1602 3.6 23:13:11 53° SSW 23:14:03 87° W 23:18:00 10° N
CZ-4C R/B 3.5 23:13:30 43° S 23:14:53 80° WSW 23:19:22 10° NNW
Cosmos 1515 4.1 23:12:57 10° N 23:16:42 54° ENE 23:17:53 37° SE
Meteor 1-18 Rocket 4.5 23:12:17 10° NNW 23:17:46 55° W 23:20:01 33° SSW
NOSS 3-2 (C) 4.4 23:10:33 10° NW 23:17:48 65° NE 23:25:58 10° ESE
Cosmos 1553 Rocket 4.0 23:18:08 31° SSW 23:21:08 71° WNW 23:27:16 10° N
Cosmos 2297 4.4 23:16:20 10° NW 23:21:30 38° WSW 23:23:14 31° SW
Cosmos 540 Rocket 4.3 23:17:13 10° NW 23:21:48 34° WSW 23:23:07 29° SW
Cosmos 2219 Rocket 4.5 23:18:43 10° W 23:22:52 20° NW 23:27:01 10° N
S3M 4.0 23:22:03 31° SSW 23:25:21 82° W 23:31:48 10° N
Cosmos 2278 Rocket 4.3 23:24:55 10° WNW 23:27:00 12° W 23:28:27 11° WSW
Cosmos 1943 Rocket 2.1 23:24:41 10° NNW 23:30:14 84° ENE 23:33:54 22° SSE
Cosmos 1486 Rocket 4.0 23:28:14 33° SSW 23:30:42 78° WNW 23:36:02 10° NNE
ATLAS 5 CENTAUR R/B 2.3 23:25:27 10° NW 23:31:08 71° SW 23:35:45 20° SSE
SL-16 R/B 3.2 23:28:01 11° SE 23:33:42 51° ENE 23:39:40 10° N
Okean 1 4.3 23:30:42 10° NNW 23:34:21 33° W 23:35:07 30° WSW
SeaSat 1 4.0 23:30:03 10° NNE 23:34:22 31° NW 23:38:30 11° WSW
Cosmos 1674 Rocket 3.5 23:30:05 10° N 23:34:36 86° WSW 23:36:16 38° S
Cosmos 1709 Rocket 4.0 23:30:32 10° N 23:36:47 83° E 23:40:29 26° SSE
Gbstr 26 Del rocket 2.6 23:33:49 10° WNW 23:37:33 65° SSW 23:41:37 10° ESE
Meteor 2-21 4.4 23:31:59 10° NNW 23:38:03 80° W 23:41:21 29° S
Cosmos 1733 Rocket 3.0 23:38:02 40° SSW 23:39:36 76° WNW 23:44:00 10° N
USA 215 3.9 23:33:23 10° E 23:39:46 59° NNE 23:46:11 10° WNW
Cosmos 1503 Rocket 4.0 23:39:41 34° S 23:42:02 78° ESE 23:47:23 10° NNE
Meteor 2-21 Rocket 4.4 23:36:08 10° N 23:42:14 88° ENE 23:45:52 26° S
Resurs 1-4 Rocket 3.4 23:37:43 10° NNE 23:42:26 31° E 23:45:39 17° SSE
BREEZE-M DEB (TANK) 3.5 23:36:13 10° W 23:44:25 53° SSW 23:47:43 10° ESE
Falcon 9 debris 4.1 23:46:33 32° SE 23:46:33 32° SE 23:49:23 10° ENE
Cosmos 1536 3.3 23:47:26 32° SSE 23:48:56 51° E 23:52:52 10° NNE
ADEOS II 4.5 23:48:08 10° ENE 23:50:31 13° E 23:52:53 10° ESE
Cosmos 1378 Rocket 3.4 23:46:43 10° NNW 23:51:03 83° W 23:52:47 36° S
Meteor 1-5 Rocket 4.4 23:47:58 28° S 23:51:14 76° E 23:57:14 10° NNE
Unknown 3.9 23:51:38 35° SE 23:51:38 35° SE 23:54:39 10° ENE
Lacrosse 5 rocket 3.2 23:48:20 10° WNW 23:50:38 19° WSW 23:50:38 19° WSW
Cosmos 968 Rocket 3.4 23:51:12 32° SSW 23:53:38 87° ESE 23:58:49 10° NNE
Unknown 3.6 23:54:33 36° ESE 23:54:33 36° ESE 23:56:55 10° ENE
UNK 4.2 23:52:03 19° SE 23:55:13 58° ENE 23:59:45 10° N
